Location: Rancho Del Sol Observatory
(38.7214°N, 120.6350°W)
Time: 07:00:32
(UTC-08:00)

A-11 Canister half - Pass Details

Date: 03 February 2020
Orbit: 1517 x 1683 km, 47.2° (Epoch: 22 February)

Event Time Altitude Azimuth Distance (km) Brightness Sun altitude
Rises 18:42:24 0° 194° (SSW) 4,852 11.9 -15.2°
Reaches altitude 10° 18:46:08 10° 184° (S) 3,844 11.2 -15.9°
Maximum altitude 18:54:00 29° 129° (SE) 2,621 9.8 -17.4°
Enters shadow 18:57:26 23° 98° (E) 2,873 9.8 -18.1°
Drops below altitude 10° 19:01:40 10° 75° (ENE) 3,749 - -18.9°
Sets 19:05:13 0° 65° (ENE) 4,714 - -19.6°
